Regional Weather Roundup
Issued by NWS Upton, NY

Home | Current Version | Previous Version | Text Only | Print | Product List | Glossary On
Versions: 1 2 3 4 5 6 7 8 9 10 11 12 13 14 15 16 17 18 19 20 21 22 23 24 25 26 27 28 29 30 31 32 33 34 35 36 37 38 39 40 41 42 43 44 45 46 47 48 49 50
000
ASUS41 KOKX 211305
RWROKX

REGIONAL WEATHER ROUNDUP
NATIONAL WEATHER SERVICE NEW YORK NY
900 AM EDT TUE OCT 21 2014

NOTE: "FAIR" INDICATES FEW OR NO CLOUDS BELOW 12,000 FEET WITH NO
SIGNIFICANT WEATHER AND/OR OBSTRUCTIONS TO VISIBILITY.

NYZ071-072-176-178-NJZ106-104-211400-
NEW YORK CITY METRO AREA


CITY           SKY/WX    TMP DP  RH WIND       PRES   REMARKS
CENTRAL PARK   MOSUNNY   58  46  64 E5        29.92S
LAGUARDIA APRT PTSUNNY   59  46  62 SE6       29.90S
KENNEDY INTL   PTSUNNY   59  48  67 E5        29.91S
NEWARK/LIBERTY PTSUNNY   58  49  72 NE3       29.90S
BRNX BOT. GARD   N/A     57  48  72 NE5       29.91S
TETERBORO      PTSUNNY   57  46  66 CALM      29.89S
$$

NYZ177-179-078>081-211400-
LONG ISLAND NEW YORK

CITY           SKY/WX    TMP DP  RH WIND       PRES   REMARKS
FARMINGDALE    PTSUNNY   56  49  77 NE3       29.91S
ISLIP          PTSUNNY   56  50  80 E3        29.90S
SHIRLEY        CLOUDY    55  50  83 E3        29.92F
WESTHAMPTON    CLOUDY    58  51  78 E6        29.93F
MONTAUK POINT    N/A     63  56  78 CALM      29.94F
$$

NYZ052-065-067-211400-
HUDSON VALLEY

CITY           SKY/WX    TMP DP  RH WIND       PRES   REMARKS
WHITE PLAINS   MOSUNNY   53  48  83 E3        29.90S
NEWBURGH       CLOUDY    50  48  93 VRB5      29.91R
MONTGOMERY     CLOUDY    48  45  89 N3        29.90R
POUGHKEEPSIE   CLOUDY    51  47  86 CALM      29.91R
ALBANY         LGT RAIN  50  47  89 N3        29.92R FOG
$$

NJZ001-105-106-008-010-013-015-019>022-104-211400-
NEW JERSEY

CITY           SKY/WX    TMP DP  RH WIND       PRES   REMARKS
NEWARK/LIBERTY PTSUNNY   58  49  72 NE3       29.90S
TETERBORO      PTSUNNY   57  46  66 CALM      29.89S
CALDWELL       LGT RAIN  50  44  80 E3        29.92R
MORRISTOWN     PTSUNNY   52  50  93 E3        29.91R
SOMERVILLE     CLOUDY    51  47  86 N3        29.89S
SUSSEX         CLOUDY    50  46  86 N3        29.91R
ANDOVER          N/A     50  48  93 CALM      29.90R
TRENTON        PTSUNNY   54  46  74 NE3       29.89R
MILLVILLE      MOSUNNY   54  51  90 CALM      29.88S
ATLANTIC CITY  MOSUNNY   56  52  86 CALM      29.89R
WRIGHTSTOWN    MOSUNNY   52  50  92 NE2       29.87R
TOMS RIVER     PTSUNNY   54  48  82 CALM      29.90R
BELMAR         MOSUNNY   54  45  71 CALM      29.89S
$$

PAZ047>061-062-071-211400-
EASTERN PENNSYLVANIA

CITY           SKY/WX    TMP DP  RH WIND       PRES   REMARKS
PHILADELPHIA   MOSUNNY   56  51  84 E3        29.88S
ALLENTOWN      CLOUDY    52  47  83 E6        29.89R
SCRANTON       CLOUDY    54  48  80 N3        29.87R
$$

CTZ002-004>006-009-010-012-RIZ004-006-007-MAZ004-011-015-211400-
SOUTHERN NEW ENGLAND
 IN CT

CITY           SKY/WX    TMP DP  RH WIND       PRES   REMARKS
BRADLEY INTL   CLOUDY    49  42  77 N5        29.95R
HARTFORD       CLOUDY    48  43  82 VRB6      29.96R
DANBURY        CLOUDY    49  30  48 CALM      29.93S
WTRBRY/OXFORD  PTSUNNY   50  43  76 E6        29.93S
BRIDGEPORT     CLOUDY    56  49  77 NE6       29.92S
MERIDEN        CLOUDY    48  44  86 CALM      29.95R
NEW HAVEN      CLOUDY    54  47  77 N7        29.93S
CHESTER        PTSUNNY   52  48  87 CALM      29.95R
GROTON         CLOUDY    53  51  93 N3        29.93F
WILLIMANTIC    CLOUDY    45  41  86 CALM      29.96S

 IN RI

CITY           SKY/WX    TMP DP  RH WIND       PRES   REMARKS
PROVIDENCE     PTSUNNY   52  50  93 N6        29.97R
BLOCK ISLAND   PTSUNNY   61  54  77 SE14      29.93F
WESTERLY       CLOUDY    53  51  93 N6        29.95S

 IN MA

CITY           SKY/WX    TMP DP  RH WIND       PRES   REMARKS
BOSTON         CLOUDY    57  54  89 SE7       29.98R
WORCESTER      CLOUDY    45  42  89 NE6       29.97R
WESTFIELD      CLOUDY    48  42  80 N5        29.96R
PROVINCETOWN   CLOUDY    57  52  82 SE12      29.99R
NANTUCKET      LGT RAIN  57  56  96 SE18      29.99S FOG
$$

ANZ330-335-338-340-345-350-353-355-211400-
COASTAL MARINE OBSERVATIONS


STATION/POSITION TIME  SKY/WX   TEMP    WIND        PRES    VSBY  WAVE
                                AIR SEA DIR/SP/G                  HT/PER
                 (UTC)          (F)     (DEG/KT/KT) (MB)    (MI)  (FT/S)
NY HARB ENTRANCE NOT AVBL
4S FIRE IS       1300               63                N/A           3/ 6
20S FIRE ISLAND  1300            63 63  120/  4/  6 1012.5          4/ 6
23SW MTP         1300                                 N/A           4/ 7
HUDSON CANYON    1300            65 66  180/  8/ 10 1012.8          4/ 6
EXECUTION ROCKS  1300            58 63   90/  8/ 10   N/A
WESTERN LI SOUND 1300            60      80/  6/  8   N/A           0
CENTRAL LI SOUND 1200            61 63  140/ 10/ 12   N/A           1
EASTERN LI SOUND 1200            58 64   30/  6/  8   N/A
ROBBINS REEF     1300            58     100/  5/  6 1011.1
$$


>>>>>>>>>>>>>>>>>>>>>>>>>>>> KEY <<<<<<<<<<<<<<<<<<<<<<<<<<<
>                                                          <
>     SKY/WX - SKY CONDITION/PRESENT WEATHER               <
>     TMP    - TEMPERATURE IN FAHRENHEIT                   <
>     DP     - DEWPOINT IN FAHRENHEIT                      <
>     RH     - RELATIVE HUMIDITY IN PERCENT                <
>     WIND   - DIRECTION AND SPEED IN MPH                  <
>     PRES   - MEAN SEA LEVEL PRESSURE IN INCHES OF HG     <
>     WCI    - WIND CHILL INDEX                            <
>     VSB    - VISIBILITY IN MILES                         <
>     HX     - HEAT INDEX                                  <
>     TC     - TEMPERATURE IN CELSIUS                      <
>     VRB    - VARIABLE WIND DIRECTION                     <
>                                                          <
>>>>>>>>>>>>>>>>>>>>>>>>>>>> KEY <<<<<<<<<<<<<<<<<<<<<<<<<<<




USA.gov is the U.S. government's official web portal to all federal, state and local government web resources and services.